Tracking 29892 objects as of 21-Nov-2024
HD Live streaming from Space Station
objects crossing your sky now

GEESAT 2-09

Track GEESAT 2-09 now!
10-day predictions


NORAD ID: 58913
Int'l Code: 2024-023J
Perigee: 591.7 km
Apogee: 602.0 km
Inclination: 50.0 °
Period: 96.5 minutes
Semi major axis: 6967 km
RCS: Unknown
Launch date: February 2, 2024
Source: People's Republic of China (PRC)
Launch site: Xichang Space Center, China (XSC)
Your satellite tracking list
Your tracking list is empty




NASA's NSSDC Master Catalog

Two Line Element Set (TLE):
1 58913U 24023J   24326.14277572  .00007048  00000-0  69891-3 0  9994
2 58913  50.0020 149.5344 0007379 189.0306 171.0505 14.92651785 43563
Source of the keplerian elements: AFSPC